This is the latest recevied weather packets stored in our database for station/object DL9OAC-5. If no packets are shown the sender has not sent any weather packets the latest 10 day(s).
| Time | Temp. | Humidity | Pressure | Rain* | Wind** | Luminosity | Snow |
|---|---|---|---|---|---|---|---|
| 1777268469 | 27.22° C | 30% | 1022.4 hPa | - | - | - | - |
| 1777268169 | 27.78° C | 30% | 1022.4 hPa | - | - | - | - |
| 1777267869 | 27.22° C | 31% | 1022.3 hPa | - | - | - | - |
| 1777267569 | 27.22° C | 31% | 1022.4 hPa | - | - | - | - |
| 1777267269 | 27.78° C | 30% | 1022.4 hPa | - | - | - | - |
| 1777266969 | 27.78° C | 31% | 1022.2 hPa | - | - | - | - |
| 1777266669 | 27.78° C | 30% | 1022.2 hPa | - | - | - | - |
| 1777266369 | 27.78° C | 30% | 1022.2 hPa | - | - | - | - |
| 1777265769 | 27.78° C | 31% | 1022.2 hPa | - | - | - | - |
| 1777265469 | 27.78° C | 31% | 1022.1 hPa | - | - | - | - |
| 1777265169 | 27.22° C | 31% | 1022.2 hPa | - | - | - | - |
| 1777264869 | 27.22° C | 31% | 1022.1 hPa | - | - | - | - |
| 1777264269 | 26.67° C | 33% | 1022.1 hPa | - | - | - | - |
| 1777263969 | 26.11° C | 33% | 1022.1 hPa | - | - | - | - |
| 1777263669 | 26.11° C | 33% | 1022 hPa | - | - | - | - |
| 1777263369 | 25.56° C | 33% | 1021.9 hPa | - | - | - | - |
| 1777262469 | 25° C | 33% | 1021.9 hPa | - | - | - | - |
| 1777262169 | 25° C | 34% | 1021.8 hPa | - | - | - | - |
| 1777261869 | 25° C | 34% | 1021.9 hPa | - | - | - | - |
| 1777259761 | 25° C | 33% | 1021.8 hPa | - | - | - | - |
| 1777259461 | 25° C | 33% | 1021.8 hPa | - | - | - | - |
| 1777258861 | 25° C | 33% | 1021.8 hPa | - | - | - | - |
| 1777258561 | 25° C | 33% | 1021.7 hPa | - | - | - | - |
| 1777256161 | 25.56° C | 33% | 1021.7 hPa | - | - | - | - |
| 1777255861 | 25.56° C | 33% | 1021.8 hPa | - | - | - | - |
* Rain since midnight (hover to see other rain measurements)
** Current wind speed in m/s (hover to see current wind gust speed)